Storm Lake, IA

3:16 AM CDT on April 20, 2018 (GMT -0500)
Storm Lake Municipal

Weather History for KSLB - October, 2012

Change the Weather History Date:

Thursday, October 25, 2012

  Actual Average Record
Temperature  
Mean Temperature 38 °F -  
Max Temperature 42 °F 55 °F 73 °F (1998)
Min Temperature 33 °F 37 °F 26 °F (2013)
Degree Days  
Heating Degree Days 28    
Moisture  
Dew Point 33 °F    
Average Humidity 88    
Maximum Humidity 100    
Minimum Humidity 70    
Precipitation  
Precipitation 0.51 in - - ()
Sea Level Pressure  
Sea Level Pressure 29.97 in    
Wind  
Wind Speed 22 mph (NNW)    
Max Wind Speed 30 mph    
Max Gust Speed 39 mph    
Visibility 7 miles    
Events Rain , Snow    
Averages and records for this station are not official NWS values.
T = Trace of Precipitation, MM = Missing Value Source: NWS Daily Summary

Daily Weather History Graph

Daily Weather History Graph

Search for Another Location

Airport or City:

Astronomy

Oct. 25, 2012 Rise Set
Actual Time 7:46 AM CDT 6:22 PM CDT
Civil Twilight 7:17 AM CDT 6:51 PM CDT
Nautical Twilight 6:44 AM CDT 7:24 PM CDT
Astronomical Twilight 6:12 AM CDT 7:57 PM CDT
Moon 4:13 PM CDT (10/25) 3:39 AM CDT (10/25)
Length of Visible Light 11h 33m
Length of Day
10h 35m
Waxing Gibbous, 84% of the Moon is Illuminated
Oct 25
Waxing Gibbous
Oct 29
Full
Nov 6
Last Quarter
Nov 13
New
Nov 20
First Quarter

Hourly Weather History & Observations

Time (CDT) Temp. Windchill Dew Point Humidity Pressure Visibility Wind Dir Wind Speed Gust Speed Precip Events Conditions
12:15 AM 42.8 °F 34.0 °F 42.8 °F 100% 29.72 in 2.5 mi North 20.7 mph - N/A   Overcast
12:35 AM 42.8 °F 34.3 °F 42.8 °F 100% 29.72 in 2.5 mi North 19.6 mph - N/A   Overcast
12:55 AM 42.8 °F 34.5 °F 42.8 °F 100% 29.73 in 3.0 mi North 18.4 mph 27.6 mph N/A   Overcast
1:15 AM 42.8 °F 34.0 °F 41.0 °F 93% 29.71 in 3.0 mi NNE 20.7 mph 27.6 mph N/A Rain Light Rain
1:35 AM 42.8 °F 33.8 °F 41.0 °F 93% 29.72 in 2.5 mi North 21.9 mph - N/A   Overcast
1:55 AM 42.8 °F 33.5 °F 41.0 °F 93% 29.73 in 4.0 mi North 23.0 mph - 0.04 in   Overcast
2:35 AM 41.0 °F 32.5 °F 41.0 °F 100% 29.73 in 3.0 mi North 17.3 mph 28.8 mph N/A   Overcast
2:55 AM 41.0 °F 32.5 °F 41.0 °F 100% 29.74 in 2.0 mi NNW 17.3 mph 29.9 mph 0.21 in Rain Rain
3:15 AM 41.0 °F 31.4 °F 41.0 °F 100% 29.68 in 2.5 mi North 21.9 mph 33.4 mph N/A   Overcast
3:35 AM 41.0 °F 31.6 °F 41.0 °F 100% 29.67 in 3.0 mi NNE 20.7 mph 26.5 mph N/A   Overcast
3:55 AM 41.0 °F 30.0 °F 41.0 °F 100% 29.63 in 3.0 mi NNE 28.8 mph 34.5 mph 0.17 in   Overcast
4:15 AM 41.0 °F 31.9 °F 39.2 °F 93% 29.71 in 7.0 mi NNW 19.6 mph - N/A Rain Light Rain
4:35 AM 39.2 °F 29.0 °F 39.2 °F 100% 29.70 in 4.0 mi North 21.9 mph 28.8 mph N/A Rain Rain
4:55 AM 39.2 °F 28.0 °F 37.4 °F 93% 29.74 in 6.0 mi NNW 26.5 mph 32.2 mph 0.04 in   Overcast
5:15 AM 37.4 °F 26.6 °F 37.4 °F 100% 29.76 in 3.0 mi NNW 21.9 mph 27.6 mph N/A   Overcast
5:35 AM 37.4 °F 26.6 °F 37.4 °F 100% 29.76 in 4.0 mi NNW 21.9 mph 32.2 mph N/A   Overcast
5:55 AM 37.4 °F 26.4 °F 35.6 °F 93% 29.77 in 8.0 mi NNW 23.0 mph 31.1 mph 0.04 in Rain Light Rain
6:55 AM 37.4 °F 25.6 °F 35.6 °F 93% 29.76 in 3.0 mi North 26.5 mph 33.4 mph 0.01 in Rain Light Rain
7:15 AM 37.4 °F 26.4 °F 35.6 °F 93% 29.78 in 2.5 mi North 23.0 mph 38.0 mph N/A Snow Light Snow
7:35 AM 37.4 °F 26.1 °F 35.6 °F 93% 29.80 in 2.5 mi NNW 24.2 mph 31.1 mph N/A   Overcast
7:55 AM 35.6 °F 24.2 °F 35.6 °F 100% 29.81 in 4.0 mi NNW 21.9 mph 33.4 mph N/A Rain Light Rain
8:35 AM 33.8 °F 20.8 °F 33.8 °F 100% 29.83 in 1.8 mi NNW 26.5 mph 35.7 mph N/A   Overcast
8:55 AM 33.8 °F 20.3 °F 33.8 °F 100% 29.85 in 2.0 mi NW 28.8 mph 35.7 mph N/A Rain Light Rain
9:15 AM 33.8 °F 21.3 °F 33.8 °F 100% 29.86 in 3.0 mi NNW 24.2 mph 32.2 mph N/A   Mostly Cloudy
9:55 AM 33.8 °F 20.8 °F 33.8 °F 100% 29.89 in 2.0 mi NW 26.5 mph 32.2 mph N/A Snow Light Snow
10:15 AM 33.8 °F 20.8 °F 33.8 °F 100% 29.90 in 3.0 mi NNW 26.5 mph 34.5 mph N/A Snow Light Snow
10:35 AM 33.8 °F 20.3 °F 33.8 °F 100% 29.92 in 3.0 mi NNW 28.8 mph 39.1 mph N/A Snow Light Snow
10:55 AM 33.8 °F 20.5 °F 33.8 °F 100% 29.93 in 4.0 mi NNW 27.6 mph 38.0 mph N/A Snow Light Snow
11:15 AM 33.8 °F 20.1 °F 32.0 °F 93% 29.94 in 7.0 mi NNW 29.9 mph 39.1 mph N/A   Overcast
11:35 AM 33.8 °F 20.3 °F 32.0 °F 93% 29.96 in 7.0 mi NNW 28.8 mph 39.1 mph N/A   Overcast
11:55 AM 33.8 °F 21.0 °F 32.0 °F 93% 29.97 in 7.0 mi NNW 25.3 mph 34.5 mph N/A   Overcast
12:15 PM 33.8 °F 20.8 °F 32.0 °F 93% 29.98 in 10.0 mi NNW 26.5 mph 34.5 mph N/A   Mostly Cloudy
12:35 PM 35.6 °F 23.2 °F 32.0 °F 87% 29.98 in 10.0 mi NNW 26.5 mph 33.4 mph N/A   Scattered Clouds
12:55 PM 33.8 °F 21.0 °F 32.0 °F 93% 29.99 in 4.0 mi NNW 25.3 mph 33.4 mph N/A Snow Light Snow
1:15 PM 35.6 °F 23.4 °F 32.0 °F 87% 30.00 in 5.0 mi NW 25.3 mph 33.4 mph N/A Snow Light Snow
1:35 PM 35.6 °F 23.7 °F 32.0 °F 87% 30.00 in 10.0 mi NNW 24.2 mph 35.7 mph N/A Snow Light Snow
1:55 PM 35.6 °F 23.2 °F 32.0 °F 87% 30.00 in 10.0 mi NNW 26.5 mph 34.5 mph N/A   Overcast
2:15 PM 35.6 °F 23.0 °F 32.0 °F 87% 30.01 in 10.0 mi NNW 27.6 mph 34.5 mph N/A   Overcast
2:35 PM 35.6 °F 24.0 °F 32.0 °F 87% 30.02 in 10.0 mi NNW 23.0 mph 32.2 mph N/A   Overcast
2:55 PM 35.6 °F 24.2 °F 32.0 °F 87% 30.03 in 10.0 mi NW 21.9 mph 32.2 mph N/A   Overcast
3:15 PM 37.4 °F 25.9 °F 30.2 °F 75% 30.04 in 10.0 mi NW 25.3 mph - N/A   Overcast
3:35 PM 35.6 °F 23.2 °F 30.2 °F 81% 30.05 in 10.0 mi NW 26.5 mph 32.2 mph N/A   Overcast
3:55 PM 35.6 °F 23.7 °F 30.2 °F 81% 30.07 in 10.0 mi NNW 24.2 mph 32.2 mph N/A   Overcast
4:15 PM 35.6 °F 23.4 °F 30.2 °F 81% 30.08 in 10.0 mi NW 25.3 mph 32.2 mph N/A   Overcast
4:35 PM 35.6 °F 24.8 °F 30.2 °F 81% 30.10 in 10.0 mi NNW 19.6 mph 29.9 mph N/A   Overcast
4:55 PM 35.6 °F 24.8 °F 30.2 °F 81% 30.11 in 10.0 mi NW 19.6 mph 26.5 mph N/A   Overcast
5:15 PM 35.6 °F 24.5 °F 30.2 °F 81% 30.12 in 10.0 mi NNW 20.7 mph 27.6 mph N/A   Overcast
5:35 PM 35.6 °F 25.5 °F 30.2 °F 81% 30.13 in 10.0 mi NW 17.3 mph 27.6 mph N/A   Overcast
5:55 PM 35.6 °F 26.2 °F 30.2 °F 81% 30.14 in 10.0 mi NW 15.0 mph 25.3 mph N/A   Overcast
6:15 PM 35.6 °F 26.2 °F 30.2 °F 81% 30.15 in 10.0 mi NW 15.0 mph 26.5 mph N/A   Overcast
6:35 PM 35.6 °F 24.5 °F 28.4 °F 75% 30.16 in 10.0 mi NW 20.7 mph 27.6 mph N/A   Overcast
6:55 PM 35.6 °F 25.9 °F 28.4 °F 75% 30.18 in 10.0 mi NW 16.1 mph 29.9 mph N/A   Overcast
7:15 PM 35.6 °F 23.7 °F 28.4 °F 75% 30.19 in 10.0 mi NW 24.2 mph 31.1 mph N/A   Overcast
7:35 PM 35.6 °F 25.9 °F 28.4 °F 75% 30.19 in 10.0 mi NW 16.1 mph 24.2 mph N/A   Overcast
7:55 PM 35.6 °F 26.6 °F 28.4 °F 75% 30.20 in 10.0 mi NW 13.8 mph - N/A   Overcast
8:15 PM 35.6 °F 25.9 °F 30.2 °F 81% 30.22 in 10.0 mi NW 16.1 mph 21.9 mph N/A   Overcast
8:35 PM 35.6 °F 26.6 °F 28.4 °F 75% 30.23 in 10.0 mi NW 13.8 mph 21.9 mph N/A   Overcast
8:55 PM 35.6 °F 26.2 °F 28.4 °F 75% 30.24 in 10.0 mi NW 15.0 mph 20.7 mph N/A   Overcast
9:15 PM 35.6 °F 26.6 °F 28.4 °F 75% 30.24 in 10.0 mi NW 13.8 mph - N/A   Overcast
9:35 PM 35.6 °F 26.2 °F 26.6 °F 70% 30.25 in 10.0 mi NW 15.0 mph 23.0 mph N/A   Overcast
9:55 PM 35.6 °F 26.6 °F 26.6 °F 70% 30.25 in 10.0 mi NW 13.8 mph - N/A   Overcast
10:15 PM 35.6 °F 27.1 °F 28.4 °F 75% 30.26 in 10.0 mi NW 12.7 mph - N/A   Overcast
10:35 PM 35.6 °F 28.0 °F 28.4 °F 75% 30.26 in 10.0 mi WNW 10.4 mph - N/A   Overcast
10:55 PM 35.6 °F 27.1 °F 28.4 °F 75% 30.27 in 10.0 mi NW 12.7 mph - N/A   Overcast
11:15 PM 35.6 °F 26.6 °F 30.2 °F 81% 30.27 in 10.0 mi WNW 13.8 mph 21.9 mph N/A   Overcast
11:55 PM 33.8 °F 24.8 °F 28.4 °F 81% 30.28 in 10.0 mi NW 12.7 mph - N/A   Overcast